User: anonymous   Login
Location: Bonn
(50.7330°N, 7.1000°E)
Time: 23:10:41
(UTC+02:00)
Language:

Iridium 84 - Orbit

View from above orbital plane
View from above orbital plane
View from above satellite
View from above satellite

Ground track
Ground track

The orbit data is extracted from the following two-line orbital elements,

1 25530U 98066D   16209.37245024  .00000201  00000-0  64606-4 0  9998
2 25530  86.3986 125.7918 0002273  85.0911 275.0544 14.34216325930446
Epoch (UTC): 27 July 2016 08:56:19
Eccentricity: 0.0002273
inclination: 86.3986°
perigee height: 776 km
apogee height: 779 km
right ascension of ascending node: 125.7918°
argument of perigee: 85.0911°
revolutions per day: 14.34216325
mean anomaly at epoch: 275.0544°
orbit number at epoch: 93044

The dashed part of the orbit path shows where the satellite is in the earth's shadow,  

DLR